Погода в Каолани

Вьетнам     10°27′25″N   105°38′09″E
темп.,
°C
ветер,
м/с
пор.,
м/с
влажн.,
%
обл.,
%
осадки,
мм/ч
давл.,
гПа
погр.,
м
20 апреля, вт
вт2001:00+26юз2684100 0.3 1009181
04:00+25ююз3687100 0.1 1009171
07:00+27ююз3584100 0.6 1010260
10:00+32юз445934 0.4 10111401
13:00+33зюз554999 0.1 10081585
16:00+34зюз444659 0.0 10061798
19:00+29зюз596449 0.0 1008270
22:00+27юз377718 0.0 1010249
21 апреля, ср
ср2101:00+27ююз3781100 0.0 1009231
04:00+26ююз3684100 0.0 1008171
07:00+27ююз3580100 0.0 1010273
10:00+32юз3356100 0.0 10111407
13:00+34зюз3348100 0.3 10081742
16:00+34юз344894 0.0 10061301
19:00+29юз596699 0.0 1007314
22:00+28юз377559 0.0 1010321
22 апреля, чт
чт2201:00+27ююз378081 0.0 1009286
04:00+26ю258495 0.0 1008185
07:00+27ю3478100 0.4 1010264
10:00+32юз4456100 0.0 10101387
13:00+33з4449100 0.1 10071566
16:00+32з5556100 0.0 1005829
19:00+29зюз596696 0.1 1007396
22:00+27юз498079 1.5 1009296
23 апреля, пт
пт2301:00+26ююз278891 5.1 1007221
04:00+26ююз379098 1.1 1006217
07:00+26ю368699 3.9 1008242
10:00+32зюз5657100 0.1 10091546
13:00+34зюз5548100 0.6 10062096
16:00+31зюз696174 0.4 1005722
19:00+28зюз61171100 0.6 1007609
22:00+27юз367894 0.0 1009239
24 апреля, сб
сб2401:00+27ююз388186 0.1 1007312
04:00+25ю2591100 4.0 1007148
07:00+27ююз268467 5.9 1009288
10:00+32зюз565982 1.4 10091518
13:00+33зюз565482 2.1 10071556
16:00+32зюз885668 0.0 10061226
19:00+29юз597015 0.0 1007465
22:00+27юз49778 0.0 1010411